Tracking 19638 objects as of 18-Apr-2019
HD Live streaming from Space Station
objects crossing your sky now

CZ-4 DEB

Track CZ-4 DEB now!
10-day predictions


NORAD ID: 26350
Int'l Code: 1999-057JK
Perigee: 482.1 km
Apogee: 494.7 km
Inclination: 98.6 °
Period: 94.2 minutes
Semi major axis: 6859 km
RCS: 0.0059 m2 (small)
Launch date: October 14, 1999
Source: People's Republic of China (PRC)
Launch site: Taiyaun Space Center, China (TSC)

Note: This is SATELLITE DEBRIS
aabbcc
Your satellite tracking list
Your tracking list is empty




NASA's NSSDC Master Catalog

Two Line Element Set (TLE):
1 26350U 99057JK  19108.65628343  .00003928  00000-0  14638-3 0  9999
2 26350  98.5854 175.1205 0009131 215.7080 144.3546 15.28175037 35234
Source of the keplerian elements: AFSPC